Atlanta, GA

10:53 PM EST on February 24, 2017 (GMT -0500)
The Hartsfield Atlanta International

Weather History for KATL - March, 2014

Change the Weather History Date:

Wednesday, March 26, 2014

  Actual Average Record
Temperature  
Mean Temperature 41 °F 57 °F  
Max Temperature 53 °F 67 °F 85 °F (1991)
Min Temperature 29 °F 46 °F 20 °F (1894)
Degree Days  
Heating Degree Days 24 9  
Month to date heating degree days 337 302  
Since 1 July heating degree days 2740 2557  
Cooling Degree Days 0 1  
Month to date cooling degree days 0 2  
Year to date cooling degree days 2 3  
Moisture  
Dew Point 11 °F    
Average Humidity 32    
Maximum Humidity 47    
Minimum Humidity 16    
Precipitation  
Precipitation 0.00 in 0.15 in 2.25 in (1901)
Month to date precipitation 2.56 4.09  
Year to date precipitation 9.72 12.96  
Snow  
Snow 0.00 in 0.00 in T in (2013)
Month to date snowfall 0.0 0.7  
Since 1 July snowfall 5.0 2.8  
Snow Depth 0.00 in    
Sea Level Pressure  
Sea Level Pressure 30.27 in    
Wind  
Wind Speed 8 mph (NNW)    
Max Wind Speed 17 mph    
Max Gust Speed 24 mph    
Visibility 10 miles    
Events      
T = Trace of Precipitation, MM = Missing Value Source: NWS Daily Summary

Daily Weather History Graph

Daily Weather History Graph

Search for Another Location

Airport or City:

Trip Planner

Search our weather history database for the weather conditions in past years. The results will help you decide how hot, cold, wet, or windy it might be!

Date:

Astronomy

Mar. 26, 2014 Rise Set
Actual Time 7:33 AM EDT 7:53 PM EDT
Civil Twilight 7:08 AM EDT 8:18 PM EDT
Nautical Twilight 6:39 AM EDT 8:48 PM EDT
Astronomical Twilight 6:09 AM EDT 9:17 PM EDT
Moon 4:29 AM EDT (3/26) 3:42 PM EDT (3/26)
Length of Visible Light 13h 10m
Length of Day
12h 20m
Waning Crescent, 22% of the Moon is Illuminated
Mar 26
Waning Crescent
Mar 30
New
Apr 7
First Quarter
Apr 15
Full
Apr 22
Last Quarter

Hourly Weather History & Observations

Time (EDT) Temp. Windchill Dew Point Humidity Pressure Visibility Wind Dir Wind Speed Gust Speed Precip Events Conditions
12:52 AM 35.1 °F 25.9 °F 16.0 °F 46% 30.19 in 10.0 mi NNW 13.8 mph 25.3 mph N/A   Clear
1:52 AM 34.0 °F 25.0 °F 14.0 °F 44% 30.20 in 10.0 mi NNW 12.7 mph - N/A   Clear
2:52 AM 33.1 °F 24.4 °F 12.9 °F 43% 30.21 in 10.0 mi NW 11.5 mph - N/A   Clear
3:52 AM 32.0 °F 24.2 °F 12.9 °F 45% 30.22 in 10.0 mi NW 9.2 mph - N/A   Clear
4:52 AM 30.9 °F 25.2 °F 12.9 °F 47% 30.22 in 10.0 mi NW 5.8 mph - N/A   Clear
5:52 AM 30.0 °F 21.7 °F 12.9 °F 49% 30.23 in 10.0 mi NNW 9.2 mph - N/A   Clear
6:52 AM 30.0 °F 20.5 °F 12.9 °F 49% 30.26 in 10.0 mi NNW 11.5 mph - N/A   Clear
7:52 AM 30.0 °F 22.4 °F 12.9 °F 49% 30.29 in 10.0 mi NW 8.1 mph - N/A   Clear
8:52 AM 32.0 °F 21.6 °F 12.9 °F 45% 30.31 in 10.0 mi NNW 15.0 mph - N/A   Clear
9:52 AM 35.1 °F 25.5 °F 12.9 °F 40% 30.34 in 10.0 mi NNW 15.0 mph 23.0 mph N/A   Clear
10:52 AM 37.9 °F 29.6 °F 10.0 °F 32% 30.35 in 10.0 mi North 13.8 mph 21.9 mph N/A   Clear
11:52 AM 41.0 °F 35.2 °F 8.1 °F 26% 30.35 in 10.0 mi North 9.2 mph 18.4 mph N/A   Clear
12:52 PM 44.1 °F 37.4 °F 6.1 °F 21% 30.34 in 10.0 mi NNW 13.8 mph 19.6 mph N/A   Clear
1:52 PM 46.9 °F - 8.1 °F 21% 30.33 in 10.0 mi WNW 5.8 mph 16.1 mph N/A   Partly Cloudy
2:52 PM 48.9 °F - 7.0 °F 18% 30.31 in 10.0 mi NNW 9.2 mph 20.7 mph N/A   Partly Cloudy
3:52 PM 51.1 °F - 7.0 °F 17% 30.29 in 10.0 mi WNW 9.2 mph - N/A   Partly Cloudy
4:52 PM 52.0 °F - 7.0 °F 16% 30.27 in 10.0 mi Variable 5.8 mph - N/A   Partly Cloudy
5:52 PM 52.0 °F - 9.0 °F 18% 30.26 in 10.0 mi WNW 6.9 mph - N/A   Partly Cloudy
6:52 PM 52.0 °F - 7.0 °F 16% 30.25 in 10.0 mi North 8.1 mph - N/A   Partly Cloudy
7:52 PM 48.9 °F - 8.1 °F 19% 30.26 in 10.0 mi NNW 6.9 mph - N/A   Partly Cloudy
8:52 PM 48.0 °F - 9.0 °F 21% 30.25 in 10.0 mi North 4.6 mph - N/A   Partly Cloudy
9:52 PM 44.1 °F - 17.1 °F 34% 30.28 in 10.0 mi Calm Calm - N/A   Partly Cloudy
10:52 PM 42.1 °F - 18.0 °F 38% 30.27 in 10.0 mi Calm Calm - N/A   Mostly Cloudy
11:52 PM 41.0 °F - 19.0 °F 41% 30.28 in 10.0 mi Calm Calm - N/A   Mostly Cloudy